FW6569 Weather Reports


time (UTC)temp
F
wind
direction
speed
knots
gust
knots
rain 1hr
in
rain 24hr
in
rain mn
in
humidity
%
barometer
mb
20260510151546 66 38 5.2 7.8 0.00 0.00 0.00 49 1017.5
20260510150546 65 16 6.1 7.8 0.00 0.00 0.00 49 1017.4
20260510145546 65 30 5.2 7.0 0.00 0.00 0.00 49 1017.2
20260510144526 65 17 5.2 6.1 0.00 0.00 0.00 49 1017.1
20260510143526 65 17 5.2 7.8 0.00 0.00 0.00 49 1017.1
20260510142526 63 25 5.2 7.0 0.00 0.00 0.00 50 1017.0
20260510141526 62 13 7.0 9.6 0.00 0.00 0.00 51 1016.9
20260510140546 62 15 6.1 7.8 0.00 0.00 0.00 53 1016.8
20260510135546 62 25 5.2 7.8 0.00 0.00 0.00 54 1016.8
20260510134546 62 9 4.3 6.1 0.00 0.00 0.00 54 1016.8
20260510133526 62 7 4.3 6.1 0.00 0.00 0.00 58 1016.7
20260510132526 61 10 3.5 6.1 0.00 0.00 0.00 59 1016.4
20260510131526 60 20 3.5 7.0 0.00 0.00 0.00 61 1016.1
20260510130526 60 18 5.2 7.0 0.00 0.00 0.00 59 1015.8
20260510125527 60 2 5.2 7.0 0.00 0.00 0.00 62 1015.5
20260510124527 60 18 4.3 7.0 0.00 0.00 0.00 62 1015.6
20260510123526 60 22 4.3 7.0 0.00 0.00 0.00 64 1015.4
20260510122526 59 11 6.1 8.7 0.00 0.00 0.00 65 1015.3
20260510121546 58 17 5.2 7.0 0.00 0.00 0.00 68 1015.0
20260510120526 58 6 4.3 6.1 0.00 0.00 0.00 70 1014.8
20260510115527 58 9 5.2 7.0 0.00 0.00 0.00 70 1014.5
20260510114526 57 10 5.2 6.1 0.00 0.00 0.00 72 1014.2
20260510113527 57 14 5.2 7.0 0.00 0.00 0.00 73 1013.9
20260510112526 56 26 4.3 6.1 0.00 0.00 0.00 74 1013.8
20260510111526 57 19 5.2 7.0 0.00 0.01 0.00 75 1013.6
20260510110527 57 23 5.2 7.0 0.00 0.01 0.00 77 1013.5
20260510105526 57 8 4.3 6.1 0.00 0.01 0.00 83 1013.3
20260510104547 57 33 4.3 6.1 0.00 0.01 0.00 87 1013.0
20260510103527 56 5 5.2 7.0 0.00 0.01 0.00 91 1013.1
20260510102526 56 9 3.5 6.1 0.00 0.01 0.00 93 1013.2
20260510101527 56 356 1.7 3.5 0.00 0.01 0.00 93 1013.3
20260510100547 55 356 0.9 3.5 0.00 0.01 0.00 93 1013.6
20260510095527 55 283 0.9 1.7 0.00 0.01 0.00 93 1013.7
20260510094527 54 240 2.6 5.2 0.00 0.01 0.00 94 1013.8
20260510093526 54 245 1.7 3.5 0.00 0.01 0.00 94 1013.4
20260510092527 54 0.0 0.0 0.00 0.02 0.00 93 1012.7
20260510091527 54 354 0.0 2.6 0.00 0.02 0.00 93 1012.7
20260510090526 54 0.0 0.0 0.00 0.04 0.00 92 1012.6
20260510085527 54 0.0 0.0 0.00 0.05 0.00 93 1012.4
20260510084527 54 0.0 0.0 0.00 0.05 0.00 92 1012.3
20260510083527 54 0.0 0.0 0.00 0.05 0.00 92 1012.3
20260510082527 54 0.0 0.0 0.00 0.06 0.00 91 1012.1
20260510081527 54 0.0 0.0 0.00 0.07 0.00 90 1012.0
20260510080527 55 0.0 0.0 0.00 0.09 0.00 89 1011.8
20260510075528 55 215 0.0 1.7 0.00 0.09 0.00 88 1011.8
20260510074527 56 0.0 0.0 0.00 0.10 0.00 87 1011.7
20260510073527 56 194 0.0 2.6 0.00 0.11 0.00 86 1011.6
20260510072527 56 66 0.9 1.7 0.00 0.12 0.00 86 1011.4
20260510071527 56 320 1.7 3.5 0.00 0.13 0.00 86 1011.5
20260510070547 56 279 1.7 3.5 0.00 0.14 0.00 85 1011.2
20260510065547 56 179 1.7 1.7 0.00 0.15 0.00 85 1011.1
20260510064527 56 185 1.7 1.7 0.00 0.15 0.00 85 1011.2
20260510063527 56 220 1.7 2.6 0.00 0.15 0.00 86 1011.3
20260510062547 56 193 2.6 3.5 0.00 0.15 0.00 87 1011.2
20260510061547 56 196 1.7 2.6 0.00 0.15 0.00 88 1011.3
20260510060547 55 205 1.7 2.6 0.00 0.16 0.00 89 1011.6
20260510055527 56 0.0 0.0 0.00 0.17 0.00 89 1011.6
20260510054547 55 0.0 0.0 0.00 0.17 0.00 87 1011.7
20260510053547 56 0.0 0.0 0.00 0.18 0.00 86 1011.7
20260510052527 56 0.0 0.0 0.00 0.18 0.00 86 1011.7
20260510051527 56 0.0 0.0 0.00 0.18 0.00 86 1011.7
20260510050527 56 0.0 0.0 0.00 0.18 0.00 86 1011.5
20260510045527 57 0.0 0.0 0.00 0.18 0.00 85 1011.4
20260510044548 57 0.0 0.0 0.00 0.18 0.00 85 1011.4
20260510043527 57 212 0.9 1.7 0.00 0.18 0.00 86 1011.5
20260510042527 57 225 0.9 1.7 0.00 0.18 0.00 87 1011.5
20260510041548 56 0.0 0.0 0.00 0.18 0.00 85 1011.5
20260510040527 56 223 0.0 1.7 0.00 0.19 0.00 86 1011.6
20260510035527 56 0.0 0.0 0.00 0.19 0.19 87 1011.6
20260510034527 56 196 0.0 0.9 0.00 0.19 0.19 87 1011.6
20260510033527 56 0.0 0.0 0.00 0.19 0.19 85 1011.5
20260510032528 57 0.0 0.0 0.00 0.20 0.19 84 1011.5
20260510031527 57 272 0.0 1.7 0.00 0.20 0.19 85 1011.5
20260510030527 58 0.0 0.0 0.00 0.21 0.19 83 1011.5
20260510025548 58 211 0.9 1.7 0.00 0.21 0.19 83 1011.4
20260510024527 58 0.0 0.0 0.00 0.22 0.19 81 1011.3
20260510023548 58 0.0 0.0 0.00 0.22 0.19 79 1011.2
20260510022527 59 0.0 0.0 0.00 0.23 0.19 78 1011.0
20260510021527 60 0.0 0.0 0.00 0.24 0.19 78 1010.9
20260510020528 60 0.0 0.0 0.00 0.24 0.19 74 1010.8
20260510015528 60 0.0 0.0 0.00 0.24 0.19 74 1010.7
20260510014527 61 0.0 0.0 0.00 0.24 0.19 71 1010.6
20260510013528 62 0.0 0.0 0.00 0.24 0.19 71 1010.4
20260510012527 63 221 0.0 1.7 0.00 0.24 0.19 69 1010.2
20260510011528 63 0.0 0.0 0.00 0.24 0.19 66 1010.0
20260510010528 64 0.0 0.0 0.00 0.24 0.19 65 1009.9
20260510005527 66 0.0 0.0 0.00 0.24 0.19 62 1009.8
20260510004528 67 227 0.0 1.7 0.00 0.24 0.19 61 1009.7
20260510003528 68 234 0.9 2.6 0.00 0.24 0.19 57 1009.5
20260510002528 69 227 1.7 5.2 0.00 0.24 0.19 55 1009.3
20260510001548 70 224 2.6 5.2 0.00 0.24 0.19 53 1009.1
20260510000528 71 249 3.5 6.1 0.00 0.24 0.19 52 1008.9
20260509235528 72 224 4.3 7.0 0.00 0.24 0.19 50 1008.9
20260509234528 73 242 5.2 8.7 0.00 0.24 0.19 48 1008.8
20260509233528 73 252 4.3 8.7 0.00 0.24 0.19 47 1008.6
20260509232528 75 238 4.3 11.3 0.00 0.24 0.19 47 1008.5
20260509231528 75 220 4.3 7.8 0.00 0.24 0.19 48 1008.4
20260509230528 75 236 4.3 8.7 0.00 0.24 0.19 47 1008.3
20260509225608 75 229 6.1 8.7 0.00 0.24 0.19 49 1008.3
20260509224528 75 243 7.0 11.3 0.00 0.24 0.19 48 1008.3
20260509223528 76 213 6.1 12.2 0.00 0.24 0.19 47 1008.3
20260509222528 76 221 6.1 12.2 0.00 0.24 0.19 46 1008.3
20260509221528 76 275 6.1 9.6 0.00 0.24 0.19 45 1008.4
20260509220528 76 228 7.0 10.4 0.00 0.24 0.19 45 1008.4
20260509215528 76 217 8.7 13.9 0.00 0.24 0.19 46 1008.5
20260509214528 76 219 7.8 13.0 0.00 0.24 0.19 45 1008.3
20260509213528 76 223 7.8 11.3 0.00 0.24 0.19 47 1008.4
20260509212529 75 241 7.0 9.6 0.00 0.24 0.19 52 1008.5
20260509211528 75 211 8.7 13.9 0.00 0.24 0.19 51 1008.5
20260509210528 75 204 9.6 14.8 0.00 0.24 0.19 52 1008.5
20260509205528 75 204 9.6 14.8 0.00 0.24 0.19 52 1008.5
20260509204529 75 208 8.7 12.2 0.00 0.24 0.19 52 1008.5
20260509203529 75 209 9.6 13.0 0.00 0.24 0.19 52 1008.7
20260509202608 75 221 7.0 11.3 0.00 0.24 0.19 55 1008.6
20260509201528 75 213 7.0 11.3 0.00 0.24 0.19 54 1008.7
20260509200529 74 210 7.8 9.6 0.00 0.24 0.19 54 1008.9
20260509195528 74 206 8.7 13.0 0.00 0.24 0.19 56 1009.1
20260509194529 73 218 9.6 14.8 0.00 0.24 0.19 56 1009.1
20260509193528 73 217 7.8 12.2 0.00 0.24 0.19 58 1009.1
20260509192528 73 208 7.8 12.2 0.00 0.24 0.19 58 1009.1
20260509191528 73 197 7.8 12.2 0.00 0.24 0.19 60 1009.2
20260509190528 72 208 9.6 12.2 0.00 0.24 0.19 60 1009.3
20260509185528 72 219 7.8 13.9 0.00 0.24 0.19 61 1009.4
20260509184529 72 198 8.7 11.3 0.00 0.24 0.19 61 1009.5
20260509183528 71 226 6.1 8.7 0.00 0.24 0.19 62 1009.4
20260509182519 71 218 7.0 12.2 0.00 0.24 0.19 61 1009.5
20260509181518 71 213 7.8 10.4 0.00 0.24 0.19 62 1009.5
20260509180518 71 235 5.2 8.7 0.00 0.24 0.19 63 1009.6
20260509175519 71 214 6.1 9.6 0.00 0.24 0.19 63 1009.7
20260509174518 69 212 7.8 12.2 0.00 0.24 0.19 65 1009.7
20260509173519 70 234 6.1 8.7 0.00 0.24 0.19 65 1009.9
20260509172519 70 236 4.3 8.7 0.00 0.24 0.19 64 1009.8
20260509171519 70 220 6.1 7.8 0.00 0.24 0.19 66 1009.8
20260509170519 68 217 6.1 10.4 0.00 0.24 0.19 67 1009.8
20260509165519 67 206 7.0 11.3 0.00 0.24 0.19 69 1009.9
20260509164519 67 211 6.1 9.6 0.00 0.24 0.19 68 1009.8
20260509163519 67 226 7.0 11.3 0.00 0.24 0.19 68 1009.8
20260509162539 67 219 6.1 12.2 0.00 0.24 0.19 70 1009.9
20260509161519 65 225 6.1 10.4 0.00 0.24 0.19 73 1009.9
20260509160519 64 209 7.0 9.6 0.00 0.24 0.19 75 1010.0
20260509155518 65 217 7.8 12.2 0.00 0.24 0.19 74 1009.9
20260509154519 65 200 7.8 12.2 0.00 0.24 0.19 73 1009.7
20260509153519 65 241 6.1 10.4 0.00 0.24 0.19 74 1009.6
20260509152519 64 225 7.0 9.6 0.00 0.24 0.19 75 1009.7